Location: Melbourne
(37.8170°S, 144.9670°E)
Time: 13:23:22
(UTC+10:00)

Aureole 2 Rocket - Visible Passes

Search period start: 27 April 2017 00:00
Search period end: 07 May 2017 00:00
Orbit: 330 x 574 km, 73.9° (Epoch: 25 April)

Date Brightness Start Highest point End Pass type
(mag) Time Alt. Az. Time Alt. Az. Time Alt. Az.
01 May 5.2 19:31:09 10° S 19:31:21 11° S 19:31:21 11° S visible
02 May 4.5 18:56:01 10° S 18:57:08 16° SSE 18:57:08 16° SSE visible
03 May 4.3 18:21:22 10° SSE 18:23:06 14° SE 18:23:06 14° SE visible
03 May 5.2 19:55:44 10° SW 19:56:50 17° SW 19:56:50 17° SW visible
04 May 2.8 19:19:50 10° SSW 19:23:08 59° W 19:23:08 59° W visible
05 May 2.3 18:44:16 10° S 18:47:46 58° ESE 18:50:02 18° NE visible
06 May 3.3 18:08:59 10° S 18:12:03 27° ESE 18:14:51 10° NE visible
06 May 5.7 19:45:34 10° WSW 19:46:56 12° W 19:48:16 10° WNW visible
